Waarnemingen

Advertentie
Mijn weer
Lerwick, Groot Brittannië (3005): temperatuur & dauwpunt: 10.01.2021 03:00:00 - 16.01.2021 03:00:00 (GMT)Lerwick, Groot Brittannië (3005): temperatuur -20cm & temperatuur -100cm: 10.01.2021 03:00:00 - 16.01.2021 03:00:00 (GMT)Lerwick, Groot Brittannië (3005): windsnelheid & windstoten: 10.01.2021 03:00:00 - 16.01.2021 03:00:00 (GMT)Lerwick, Groot Brittannië (3005): windrichting: 10.01.2021 03:00:00 - 16.01.2021 03:00:00 (GMT)Lerwick, Groot Brittannië (3005): luchtdruk: 10.01.2021 03:00:00 - 16.01.2021 03:00:00 (GMT)Lerwick, Groot Brittannië (3005): zicht: 10.01.2021 03:00:00 - 16.01.2021 03:00:00 (GMT)Lerwick, Groot Brittannië (3005): Zonneschijnduur: 10.01.2021 03:00:00 - 16.01.2021 03:00:00 (GMT)Lerwick, Groot Brittannië (3005): neerslag: 10.01.2021 03:00:00 - 16.01.2021 03:00:00 (GMT)
Datum & Tijd tt [°C] td [°C] tt -20cm [°C] tt -100cm [°C] ff [km/u] ff [kn] fx [km/u] fx [kn] dd ppp [hPa] vv [km] sd [min] rr [mm]
16.01.2021 03:00:00 - - - - - - - - - - - - -
16.01.2021 02:00:00 5,3 2,6 - - 52 28 74 40 Z 1014,6 24 0 0,0
16.01.2021 01:00:00 5,0 2,5 - - 52 28 70 38 Z 1016,1 35 0 0,0
16.01.2021 00:00:00 5,1 2,9 - - 52 28 65 35 Z 1017,4 35 - 0,0
15.01.2021 23:00:00 5,1 3,5 - - 44 24 63 34 Z 1018,8 35 0 0,0
15.01.2021 22:00:00 5,2 3,0 - - 39 21 54 29 Z 1019,7 50 0 0,0
15.01.2021 21:00:00 5,5 3,7 - - 35 19 48 26 Z 1020,5 35 0 0,0
15.01.2021 20:00:00 5,2 3,3 - - 31 17 - - ZZW 1021,2 30 0 0,0
15.01.2021 19:00:00 3,2 2,9 - - 9 5 - - W 1021,9 20 0 0,0
15.01.2021 18:00:00 2,9 2,5 - - - - - - - 1022,3 15 0 0,0
15.01.2021 17:00:00 4,1 3,5 - - 15 8 - - W 1022,5 28 0 0,0
15.01.2021 16:00:00 4,5 3,8 - - 18 10 - - WZW 1022,7 75 0 0,2
15.01.2021 15:00:00 5,4 4,7 - - 28 15 - - WZW 1022,6 45 0 0,0
15.01.2021 14:00:00 5,4 4,6 - - 24 13 - - WZW 1023,0 26 6 0,0
15.01.2021 13:00:00 5,9 5,3 - - 24 13 - - ZW 1023,4 45 6 0,0
15.01.2021 12:00:00 5,6 5,3 - - 24 13 48 26 Z 1023,7 35 0 0,4
15.01.2021 11:00:00 5,4 5,1 - - 37 20 50 27 ZZO 1024,3 1,3 0 0,4
15.01.2021 10:00:00 5,1 4,7 - - 37 20 55 30 ZZO 1024,6 12 0 0,2
15.01.2021 09:00:00 4,8 4,1 3,2 6,0 42 23 57 31 ZO 1024,6 8 0 0,0
15.01.2021 08:00:00 4,8 3,6 - - 41 22 55 30 ZO 1024,6 25 0 0,0
15.01.2021 07:00:00 4,7 3,2 - - 37 20 52 28 ZZO 1024,7 26 0 0,0
15.01.2021 06:00:00 4,9 2,4 - - 35 19 50 27 ZZO 1024,9 40 0 0,0
15.01.2021 05:00:00 4,9 2,4 - - 35 19 50 27 ZZO 1025,0 35 0 0,0
15.01.2021 04:00:00 4,9 2,3 - - 35 19 48 26 ZO 1025,0 40 0 0,0
15.01.2021 03:00:00 4,7 2,3 - - 34 18 - - - 1025,3 35 0 0,0
15.01.2021 02:00:00 4,0 2,5 - - 29 16 48 26 ZO 1025,5 30 0 0,0
15.01.2021 01:00:00 4,0 2,4 - - 28 15 - - ZZO 1025,3 30 0 0,2
15.01.2021 00:00:00 4,8 2,3 - - 31 17 - - ZZO 1025,2 35 - 0,0
14.01.2021 23:00:00 4,7 2,4 - - 31 17 - - ZZO 1025,2 35 0 0,0
14.01.2021 22:00:00 4,4 2,3 - - 31 17 - - ZZO 1025,2 45 0 0,0
14.01.2021 21:00:00 4,4 2,1 - - 26 14 - - Z 1024,8 35 0 0,0
14.01.2021 20:00:00 4,2 1,5 - - 28 15 - - Z 1024,7 55 0 0,0
14.01.2021 19:00:00 4,6 1,6 - - 24 13 - - Z 1024,4 40 0 0,0
14.01.2021 18:00:00 4,6 0,8 - - - - - - - 1024,1 40 0 0,0
14.01.2021 17:00:00 4,0 1,4 - - 35 19 48 26 Z 1023,9 25 0 0,0
14.01.2021 16:00:00 3,8 1,9 - - 31 17 - - Z 1023,7 40 0 0,0
14.01.2021 15:00:00 4,1 1,2 - - 26 14 - - Z 1023,3 55 0 0,0
14.01.2021 14:00:00 4,5 0,4 - - 28 15 - - Z 1023,2 65 0 0,0
14.01.2021 13:00:00 4,3 -0,1 - - 29 16 - - Z 1023,2 65 0 0,0
14.01.2021 12:00:00 4,4 0,7 - - 29 16 - - Z 1023,0 55 0 0,0
14.01.2021 11:00:00 4,3 0,5 - - 29 16 - - Z 1022,8 55 0 0,0
14.01.2021 10:00:00 3,9 -0,1 - - 28 15 - - ZZO 1022,4 55 0 0,0
14.01.2021 09:00:00 4,1 0,4 3,2 6,2 29 16 - - ZZO 1021,7 55 0 0,0
14.01.2021 08:00:00 3,5 -0,1 - - 29 16 - - Z 1021,4 65 0 0,0
14.01.2021 07:00:00 3,4 0,0 - - 29 16 - - Z 1021,2 60 0 0,0
14.01.2021 06:00:00 3,4 -0,2 - - 29 16 - - ZZO 1020,5 65 0 0,0
14.01.2021 05:00:00 3,4 -0,4 - - 31 17 - - ZZO 1020,3 75 0 0,0
14.01.2021 04:00:00 3,1 -0,6 - - 26 14 - - ZZO 1020,1 70 0 0,0
14.01.2021 03:00:00 3,1 -0,5 - - 28 15 - - ZZO 1019,9 70 0 0,0
14.01.2021 02:00:00 3,1 -0,6 - - 28 15 - - ZZO 1019,9 70 0 0,0
14.01.2021 01:00:00 2,9 -0,9 - - 26 14 - - ZO 1019,5 70 0 0,0
14.01.2021 00:00:00 2,5 -1,2 - - 24 13 - - ZO 1019,4 75 - 0,0
13.01.2021 23:00:00 2,4 -1,5 - - - - - - - 1019,3 75 0 0,0
13.01.2021 22:00:00 2,5 -1,5 - - - - - - - 1018,8 75 0 0,0
13.01.2021 21:00:00 2,7 -1,6 - - - - - - - 1018,2 75 0 0,0
13.01.2021 20:00:00 2,3 -1,5 - - 22 12 - - O 1017,9 70 0 0,0
13.01.2021 19:00:00 2,3 -1,3 - - 22 12 - - O 1017,7 75 0 0,0
13.01.2021 18:00:00 2,2 -0,6 - - 21 11 - - O 1017,4 45 0 0,0
13.01.2021 17:00:00 3,1 -0,6 - - 24 13 - - ONO 1016,8 45 0 0,0
13.01.2021 16:00:00 3,1 -0,7 - - 21 11 - - ONO 1016,6 40 0 0,0
13.01.2021 15:00:00 3,3 -0,2 - - 21 11 - - ONO 1016,7 30 0 0,0
13.01.2021 14:00:00 4,1 0,4 - - 26 14 46 25 ONO 1016,2 40 12 0,0
13.01.2021 13:00:00 4,7 1,5 - - 24 13 - - ONO 1015,9 40 36 0,0
13.01.2021 12:00:00 4,5 1,3 - - 24 13 - - NO 1015,5 40 0 0,0
13.01.2021 11:00:00 2,8 1,6 - - 21 11 - - N 1015,6 30 0 0,2
13.01.2021 10:00:00 2,7 1,5 - - 21 11 - - N 1014,9 30 0 0,0
13.01.2021 09:00:00 3,1 1,7 3,2 6,2 26 14 - - N 1014,5 35 0 0,0
13.01.2021 08:00:00 2,8 0,8 - - 22 12 - - N 1014,3 35 0 0,0
13.01.2021 07:00:00 3,1 0,5 - - 26 14 - - N 1013,9 16 0 0,0
13.01.2021 06:00:00 3,3 0,3 - - 28 15 48 26 N 1013,7 40 0 0,0
13.01.2021 05:00:00 2,9 -0,2 - - 29 16 - - N 1013,9 40 0 0,0
13.01.2021 04:00:00 2,5 0,4 - - 29 16 46 25 N 1013,5 40 0 0,0
13.01.2021 03:00:00 2,5 0,2 - - 29 16 50 27 N 1013,2 40 0 0,0
13.01.2021 02:00:00 2,7 -0,1 - - 34 18 55 30 N 1012,9 55 0 0,0
13.01.2021 01:00:00 3,0 0,0 - - 29 16 - - NNW 1013,0 40 0 0,0
13.01.2021 00:00:00 2,4 0,4 - - 28 15 54 29 N 1013,2 40 - 0,0
12.01.2021 23:00:00 2,7 0,1 - - 29 16 46 25 N 1012,6 40 0 0,0
12.01.2021 22:00:00 2,9 0,3 - - 34 18 46 25 N 1012,5 40 0 0,0
12.01.2021 21:00:00 2,5 -0,2 - - 29 16 - - N 1012,3 50 0 0,0
12.01.2021 20:00:00 2,6 0,2 - - 31 17 50 27 N 1011,8 50 0 0,0
12.01.2021 19:00:00 2,4 0,4 - - 31 17 - - NNW 1011,7 45 0 0,0
12.01.2021 18:00:00 2,2 0,1 - - 28 15 52 28 NNW 1011,5 50 0 0,0
12.01.2021 17:00:00 2,2 0,3 - - 24 13 - - NNW 1011,1 45 0 0,0
12.01.2021 16:00:00 1,6 0,4 - - 28 15 55 30 N 1010,9 75 0 0,0
12.01.2021 15:00:00 2,1 0,0 - - 35 19 59 32 NNW 1010,4 75 0 0,0
12.01.2021 14:00:00 2,2 0,1 - - 22 12 55 30 NNW 1010,1 60 6 0,0
12.01.2021 13:00:00 2,4 0,3 - - 29 16 48 26 NNW 1009,7 70 54 0,0
12.01.2021 12:00:00 2,6 0,2 - - 21 11 - - NNW 1009,7 55 54 0,0
12.01.2021 11:00:00 2,2 0,0 - - 22 12 - - NNW 1009,7 65 54 0,0
12.01.2021 10:00:00 1,8 0,0 - - 22 12 - - NW 1009,4 50 0 0,0
12.01.2021 09:00:00 2,3 -0,4 3,2 6,2 28 15 52 28 NNW 1008,9 8 0 0,0
12.01.2021 08:00:00 2,2 -1,9 - - 24 13 - - NNW 1008,2 60 0 0,0
12.01.2021 07:00:00 2,2 -1,7 - - 24 13 46 25 N 1007,7 65 0 0,0
12.01.2021 06:00:00 2,0 -2,0 - - 26 14 - - NNW 1007,1 70 0 0,0
12.01.2021 05:00:00 1,6 -2,9 - - 28 15 52 28 NNW 1006,5 65 0 0,0
12.01.2021 04:00:00 1,6 -0,5 - - 37 20 57 31 N 1006,0 3,5 0 0,0
12.01.2021 03:00:00 1,0 -3,2 - - 18 10 - - N 1005,0 75 0 0,0
12.01.2021 02:00:00 1,7 -0,4 - - 26 14 48 26 N 1003,8 60 0 0,0
12.01.2021 01:00:00 1,6 0,0 - - 29 16 50 27 N 1002,3 75 0 0,0
12.01.2021 00:00:00 1,8 0,2 - - 37 20 50 27 NNO 1000,8 75 - 0,0
11.01.2021 23:00:00 2,0 0,0 - - 28 15 46 25 N 999,1 50 0 0,0
11.01.2021 22:00:00 2,1 -0,2 - - 26 14 48 26 NNW 998,1 70 0 0,0
11.01.2021 21:00:00 2,3 0,5 - - 24 13 50 27 NNW 997,3 35 0 0,0
11.01.2021 20:00:00 1,6 -0,1 - - - - 50 27 - 997,3 50 0 0,0
11.01.2021 19:00:00 2,5 -1,4 - - 29 16 - - WNW 997,3 45 0 0,0
11.01.2021 18:00:00 1,0 -0,3 - - 15 8 - - NW 997,6 55 0 0,0
11.01.2021 17:00:00 1,1 -1,1 - - 22 12 - - NW 997,4 70 0 0,0
11.01.2021 16:00:00 2,1 -0,1 - - - - - - - 997,2 45 0 0,0
11.01.2021 15:00:00 0,7 0,2 - - 35 19 46 25 NW 997,9 5 6 0,0
11.01.2021 14:00:00 1,5 -2,4 - - 24 13 50 27 WNW 997,8 65 12 0,0
11.01.2021 13:00:00 1,9 -2,5 - - 28 15 - - WNW 998,3 70 12 0,0
11.01.2021 12:00:00 1,7 -3,3 - - 24 13 - - WNW 998,9 75 30 0,0
11.01.2021 11:00:00 0,4 -3,7 - - 15 8 - - WNW 999,6 75 24 0,0
11.01.2021 10:00:00 -0,6 -3,9 - - 13 7 - - NW 1000,1 65 0 0,0
11.01.2021 09:00:00 -1,4 -3,2 3,5 6,4 8 4 - - NNW 1000,4 70 0 0,0
11.01.2021 08:00:00 -1,0 -2,2 - - 13 7 - - NNW 1000,4 65 0 0,0
11.01.2021 07:00:00 -0,3 -1,9 - - 15 8 - - - 1000,6 75 0 0,0
11.01.2021 06:00:00 -0,2 -2,9 - - 9 5 - - N 1000,8 65 0 0,0
11.01.2021 05:00:00 -0,6 -2,4 - - 8 4 - - N 1001,1 60 0 0,0
11.01.2021 04:00:00 -0,6 -2,9 - - 11 6 - - N 1001,6 70 0 0,0
11.01.2021 03:00:00 0,0 -1,5 - - 11 6 - - N 1002,2 65 0 0,0
11.01.2021 02:00:00 0,3 -0,6 - - 9 5 - - N 1002,8 12 0 0,0
11.01.2021 01:00:00 0,4 -0,9 - - 13 7 - - N 1003,2 15 0 0,0
11.01.2021 00:00:00 1,3 -0,4 - - 9 5 - - W 1003,8 50 - 0,0
10.01.2021 23:00:00 1,7 -0,5 - - - - - - - 1004,6 22 0 0,0
10.01.2021 22:00:00 0,6 -1,3 - - 4 2 - - NNO 1005,4 50 0 0,0
10.01.2021 21:00:00 0,4 -2,1 - - 9 5 - - N 1006,2 55 0 0,0
10.01.2021 20:00:00 1,4 -2,8 - - 11 6 - - NNW 1006,8 50 0 0,0
10.01.2021 19:00:00 2,0 -1,6 - - 15 8 - - WNW 1007,4 40 0 0,0
10.01.2021 18:00:00 1,5 -1,2 - - 13 7 - - WNW 1008,0 20 0 0,0
10.01.2021 17:00:00 0,7 -1,1 - - 13 7 - - WNW 1008,6 40 0 0,0
10.01.2021 16:00:00 0,2 -1,1 - - 15 8 - - NW 1009,0 40 0 0,0
10.01.2021 15:00:00 0,8 -1,0 - - 18 10 - - WNW 1009,3 25 0 0,0
10.01.2021 14:00:00 1,2 -0,5 - - 15 8 52 28 NNW 1009,4 30 0 0,0
10.01.2021 13:00:00 2,4 -0,9 - - 34 18 55 30 NW 1009,7 30 18 0,0
10.01.2021 12:00:00 2,1 -0,4 - - 31 17 54 29 NW 1010,1 40 12 0,0
10.01.2021 11:00:00 0,5 -0,4 - - 26 14 54 29 NW 1011,1 40 0 0,0
10.01.2021 10:00:00 0,6 -0,6 - - 29 16 48 26 NW 1011,6 1,2 0 0,0
10.01.2021 09:00:00 0,8 -0,5 3,7 6,4 18 10 - - NW 1011,5 30 0 0,0
10.01.2021 08:00:00 1,0 0,2 - - 21 11 48 26 NW 1012,1 4,6 0 0,0
10.01.2021 07:00:00 0,9 0,0 - - 41 22 63 34 WNW 1012,6 2,5 0 0,0
10.01.2021 06:00:00 0,6 -1,4 - - 13 7 - - NW 1012,9 40 0 0,0
10.01.2021 05:00:00 1,8 -1,0 - - - - 68 37 - 1013,4 60 0 0,0
10.01.2021 04:00:00 1,2 -0,8 - - 13 7 - - NW 1013,5 40 0 0,0
10.01.2021 03:00:00 2,4 -0,3 - - 26 14 - - NW 1014,0 35 0 0,0

tt = temperatuur
td = dauwpunt
tt -20cm = temperatuur -20cm
tt -100cm = temperatuur -100cm
ff = windsnelheid
fx = windstoten
dd = windrichting
ppp = luchtdruk
vv = zicht
sd = Zonneschijnduur
rr = neerslag

Weerstations in de omgeving